Погода в Георгиуполисе

Греция     35°21′39″N   24°15′39″E
темп.,
°C
ветер,
м/с
пор.,
м/с
влажн.,
%
обл.,
%
осадки,
мм/ч
давл.,
гПа
погр.,
м
1 марта, пн
пн123:00+10с798136 0.1 1025750
02:00+9с797729 0.2 1024612
05:00+8с797320 0.0 1024597
08:00+8с687111 0.0 1025672
11:00+10с68626 0.0 1025865
14:00+11с56573 0.0 1024810
17:00+10с56620 0.0 1024638
20:00+7с55710 0.0 1024208
2 марта, вт
вт223:00+7с55713 0.0 1026202
02:00+7с678011 0.0 1025344
05:00+8с7107539 0.1 1025733
08:00+8ссв10138140 0.3 10261000
11:00+9с9127556 0.3 10271132
14:00+9с7107159 0.5 10271143
17:00+7с9137660 0.2 10261160
20:00+6с9137955 0.6 10271135
3 марта, ср
ср323:00+6с10147968 0.6 10271302
02:00+6с9137959 1.3 10261029
05:00+6с10148069 0.6 10251077
08:00+7с10158062 1.1 10251399
11:00+8с11167447 0.3 10261554
14:00+8с10157660 0.6 10251486
17:00+8ссз8127460 0.2 10241270
20:00+8с9128049 0.3 1025870
4 марта, чт
чт423:00+8ссз798140 0.1 1025652
02:00+8ссз578140 0.1 1024471
05:00+8с677929 0.0 1024307
08:00+8с677522 0.0 1024403
11:00+12с56592 0.0 1024696
14:00+13с34551 0.0 1023652
17:00+12с12590 0.0 1022393
20:00+8ссз22690 0.0 102262
5 марта, пт
пт523:00+8сз11510 0.0 102240
02:00+7юз22630 0.0 102190
05:00+6зюз11800 0.0 102070
08:00+9юз117728 0.0 102163
11:00+12ю336451 0.0 1021466
14:00+12ююв337066 0.0 1020502
17:00+11ююв2275100 0.0 1020495
20:00+9ююз338583 0.0 1020239